Overview Statistics Trail Chart Weather Telemetry Raw packets
 

This is the latest recevied weather packets stored in our database for station/object OE2WAO-15. If no packets are shown the sender has not sent any weather packets the latest 10 day(s).

<< 8 9 10 11 12 13 14 >>
Time Temp. Humidity Pressure Rain* Wind** Luminosity Snow
1788356968 25.56° C 99% 1020.9 hPa - - - -
1788356361 25° C 94% 1021 hPa - - - -
1788355753 25° C 99% 1021 hPa - - - -
1788355145 24.44° C 99% 1021.1 hPa - - - -
1788354538 24.44° C 99% 1021.2 hPa - - - -
1788353930 24.44° C 99% 1021.2 hPa - - - -
1788353322 23.89° C 99% 1021.3 hPa - - - -
1788352715 23.89° C 99% 1021.3 hPa - - - -
1788352107 23.89° C 99% 1021.2 hPa - - - -
1788351499 23.89° C 99% 1021.4 hPa - - - -
1788350892 23.89° C 99% 1021.4 hPa - - - -
1788350284 23.89° C 99% 1021.5 hPa - - - -
1788349676 23.33° C 99% 1021.6 hPa - - - -
1788349068 23.89° C 99% 1021.5 hPa - - - -
1788348461 23.33° C 99% 1021.5 hPa - - - -
1788347853 23.33° C 99% 1021.6 hPa - - - -
1788347245 23.89° C 99% 1021.7 hPa - - - -
1788346638 23.89° C 99% 1021.8 hPa - - - -
1788346030 23.33° C 99% 1021.9 hPa - - - -
1788345422 23.33° C 99% 1021.9 hPa - - - -
1788344815 22.78° C 99% 1022 hPa - - - -
1788344207 22.78° C 99% 1022.2 hPa - - - -
1788343599 22.22° C 99% 1022.2 hPa - - - -
1788342992 21.67° C 99% 1022.3 hPa - - - -
1788342384 21.67° C 99% 1022.3 hPa - - - -

* Rain since midnight (hover to see other rain measurements)
** Current wind speed in m/s (hover to see current wind gust speed)